Location: Most
(50.5133°N, 13.6207°E)
Time: 00:37:25
(UTC+01:00)

ISS - Pass Details

Date: 18 July 2018
Orbit: 401 x 408 km, 51.6° (Epoch: 20 November)

Event Time Altitude Azimuth Distance (km) Brightness Sun altitude
Exits shadow 23:27:35 11° 91° (E) 1,427 -1.3 -14.8°
Drops below altitude 10° 23:27:46 10° 89° (E) 1,487 -1.2 -14.8°
Enters shadow 00:44:57 -28° 250° (WSW) 6,690 2.3 -18.2°
Maximum altitude 01:01:19 82° 165° (SSE) 423 -3.9 -18.4°
